Regional Weather Roundup
Issued by NWS

Home | Current Version | Previous Version | Graphics & Text | Print | Product List | Glossary On
Versions: 1 2 3 4 5 6 7 8 9 10 11 12 13 14 15 16 17 18 19 20 21 22 23 24 25 26 27 28 29 30 31 32 33 34 35 36 37 38 39 40 41 42 43 44 45 46 47 48 49 50
260
ASUS43 KDMX 180401
RWRIA

WEATHER ROUNDUP FOR IOWA
NATIONAL WEATHER SERVICE DES MOINES IA
1000 PM CST TUE JAN 17 2017

NOTE: "FAIR" INDICATES FEW OR NO CLOUDS BELOW 12,000 FEET WITH NO
SIGNIFICANT WEATHER AND/OR OBSTRUCTIONS TO VISIBILITY.

* - THESE STATIONS ARE NOT NWS STATIONS...THUS NOT UNDER NWS
QUALITY CONTROL.  THEY ALSO DO NOT REPORT WEATHER SUCH
AS PRECIPITATION OR FOG.

IAZ001>003-012>014-020>022-031>034-043>046-180500-
   NORTHWEST IOWA

CITY           SKY/WX    TMP DP  RH WIND       PRES   REMARKS
CARROLL *      CLOUDY    30  30 100 SW14      30.07S FOG     WCI  20
CHEROKEE *     CLOUDY    25  25 100 CALM      30.04R
DENISON *      FOG       27  27 100 S8        30.04F VSB 1/2 WCI  18
LE MARS *      CLOUDY    28  28 100 S8        30.04R WCI  20
ORANGE CITY *  CLOUDY    27  27 100 S3        30.01S
SHELDON *      CLOUDY    27  27 100 S6        30.00S WCI  20
SIOUX CITY     CLOUDY    28  26  92 SE6       30.03F WCI  22
SPENCER        CLOUDY    27  26  96 SW9       30.02R FOG     WCI  18
STORM LAKE *   CLOUDY    27  27 100 SW12      30.02F WCI  16
$$

IAZ055>058-069>071-079>083-090>094-180500-
   SOUTHWEST IOWA

CITY           SKY/WX    TMP DP  RH WIND       PRES   REMARKS
ATLANTIC *     CLOUDY    30  30 100 SW6       30.09S FOG     WCI  24
AUDUBON *      CLOUDY    30  27  86 S3        30.08S FOG
CLARINDA *     CLEAR     28  28 100 S3        30.14R
COUNCIL BLFS * CLOUDY    27  27 100 S5        30.07F FOG     WCI  21
CRESTON *      CLOUDY    30  30 100 SW6       30.11S WCI  24
HARLAN  *      FOG       30  30 100 SW7       30.11S VSB 1/2 WCI  23
LAMONI         CLOUDY    32  30  92 SW8       30.12R WCI  25
RED OAK *      CLOUDY    27  27 100 CALM      30.11R FOG
SHENANDOAH *   CLOUDY    28  28 100 S3        30.12S
$$

IAZ047>049-059>061-072>074-084-180500-
   CENTRAL IOWA

CITY           SKY/WX    TMP DP  RH WIND       PRES   REMARKS
AMES           CLOUDY    31  31 100 SW12      30.09R FOG     WCI  22
ANKENY *       CLOUDY    32  32 100 W9        30.11S FOG     WCI  24
BOONE *        CLOUDY    30  30 100 W13       30.07S WCI  20
CHARITON *     CLOUDY    32  32 100 W8        30.11R FOG     WCI  25
DES MOINES     CLOUDY    32  31  96 W10       30.10S FOG     WCI  24
GRINNELL*      CLOUDY    33  32  98 W9        30.08S FOG     WCI  25
KNOXVILLE *    CLOUDY    32  32 100 W10       30.09S VSB 1/2 WCI  24
MARSHALLTOWN   CLOUDY    31  31 100 W9        30.07S FOG     WCI  23
NEWTON *       CLOUDY    32  32 100 W8        30.08S FOG     WCI  25
PELLA *        CLOUDY    32  32  99 W8        30.11S FOG     WCI  25
PERRY *        CLOUDY    32  31  98 SW10      30.09S WCI  23
$$

IAZ004>006-015-016-023>025-035-036-180500-
   NORTH CENTRAL IOWA

CITY           SKY/WX    TMP DP  RH WIND       PRES   REMARKS
ALGONA *       CLOUDY    30  30 100 SW15      30.03S FOG     WCI  19
CLARION *      FOG       30  30 100 SW12      30.05F VSB 1/4 WCI  21
ESTHERVILLE    CLOUDY    26  26 100 SW12      30.01S FOG     WCI  16
FORT DODGE *   CLOUDY    28  27  93 MISG      30.07S
MASON CITY     CLOUDY    30  28  92 SW9       30.04F FOG     WCI  22
FOREST CITY *  CLOUDY    30  30 100 SW8       30.03S WCI  23
WEBSTER CITY * CLOUDY    30  30 100 SW12      30.05S FOG     WCI  21
IOWA FALLS *   FOG       32  31  96 W7        30.07S VSB 1/4 WCI  26
$$

IAZ007>011-017>019-026>030-037>042-050>054-066-180500-
   NORTHEAST IOWA

CITY           SKY/WX    TMP DP  RH WIND       PRES   REMARKS
CEDAR RAPIDS   FOG       32  32 100 NW6       30.07R VSB 3/4 WCI  26
CHARLES CITY * FOG       32  32 100 W10G16    30.05S VSB 1/4 WCI  24
CLINTON *      CLOUDY    33  33 100 W12       30.06R FOG     WCI  24
DECORAH *      FOG       32  32 100 VRB5      30.02S VSB 1/4 WCI  27
DUBUQUE        FOG       33  33 100 W13       30.02R VSB 3/4 WCI  24
MONTICELLO *   CLOUDY    34  32  93 W9        30.05R FOG     WCI  26
OELWEIN *      FOG       32  32 100 W6        30.05S VSB 1/4 WCI  26
WATERLOO       CLOUDY    33  32  96 SW5       30.06S FOG     WCI  29
$$

IAZ064-065-067-068-078-180500-
   EAST CENTRAL IOWA

CITY           SKY/WX    TMP DP  RH WIND       PRES   REMARKS
DAVENPORT      CLOUDY    33  32  96 W10       30.07R FOG     WCI  25
IOWA CITY      CLOUDY    35  33  92 W7        30.11R WCI  29
MUSCATINE *    CLOUDY    36  32  87 W8        30.10S WCI  29
QUAD CITIES    CLOUDY    34  32  92 W10       30.07R FOG     WCI  26
$$

IAZ062-063-075>077-085>089-095>099-180500-
   SOUTHEAST IOWA

CITY           SKY/WX    TMP DP  RH WIND       PRES   REMARKS
BURLINGTON     CLOUDY    36  34  92 NW7       30.09F WCI  30
FAIRFIELD *    CLOUDY    36  34  93 W7        30.10R FOG     WCI  30
FORT MADISON * CLOUDY    37  36  93 W5        30.11S WCI  34
KEOKUK *       CLOUDY    37  36  93 SW6       30.11S WCI  33
OSKALOOSA *    CLOUDY    33  33  98 W8        30.10S FOG     WCI  26
OTTUMWA        CLOUDY    35  33  92 W3        30.09S FOG
WASHINGTON *   CLOUDY    34  34 100 W7        30.11R FOG     WCI  28
$$

ABBREVIATIONS USED IN REMARKS
   TC - TEMPERATURES IN CELSIUS
  WCI - WIND CHILL INDEX
   HX - HEAT INDEX
  VSB - VISIBILITY
$$





USA.gov is the U.S. government's official web portal to all federal, state and local government web resources and services.